weather.gov     
National Weather Service

Terminal Aerodrome Forecast
NWS Homepage
This page is being discontinued on March 12, 2014.
The same data is available at this site. Please update your bookmarks.
Thank you, and we apologize for the inconvenience.
Please send an email to SR-SRH.Webmaster@noaa.gov with any concerns.


Current Version
Previous Version:    01  02  03  04  05  06  07  08  09  10  11  12  13  14  15  16  17  18  19  20  21  22  23  24  25  26  27  28  29  30  
   31  32  33  34  35  36  37  
[Printable]
198
FTUS43 KIND 012100 AAC
TAFHUF
TAF AMD
KHUF 012148Z 0122/0218 14008KT 1/2SM -SHRA FG OVC003
     FM012300 19006KT 2SM -RASN BR OVC004
     FM020100 29010G18KT 2SM -SHSN BR OVC004
     FM020600 32016G23KT P6SM OVC025
     FM021200 31012G20KT P6SM OVC025
     FM021600 30010KT P6SM SCT025 BKN150=


U.S. Dept. of Commerce
NOAA National Weather Service
1325 East West Highway
Silver Spring, MD 20910
E-mail: w-nws.webmaster@noaa.gov
Page last modified: May 16, 2007
NATIONAL WEATHER SERVICE: for Safety, for Work, for Fun - FOR LIFE